Mascalucia

Il Cataforio non fa sconti e supera anche il Mascalucia

Nell'ultimo turno casalingo della regular season, non si placa la voglia di vittoria del Cataforio. Nonostante un organico privo degli squalificati Durante e Parisi e dell'infortunato Scopelliti, il quintetto di mister Praticò riesce a...

Futsal Polistena, Daniele Cordiano: “Umiltà e lavoro per riprendere il cammino”

Sabato prossimo, in quel di Reggio Calabria, il Futsal Polistena – reduce da due sconfitte consecutive, contro Mascalucia e Mabbonath – farà visita al Cataforio nella quinta giornata del girone “H” di Serie B. A...

Futsal Polistena, il dirigente Infusini carica l’ambiente

Infusini carica l’ambiente dopo il ko a Mascalucia: «Siamo una grande squadra, reagiamo subito» Archiviata la sconfitta di Mascalucia, per la squadra di mister Pino Molluso è tempo di pensare al prossimo impegno, in programma...

Futsal Polistena, a Mascalucia arriva il primo stop

Primo ko stagionale per il Futsal Polistena nel girone “H” del campionato nazionale di Serie B. La squadra guidata da mister Pino Molluso è tornata senza punti dalla trasferta di Mascalucia, dove i padroni di...

Futsal Polistena, rossoverdi pronti per la sfida a Mascalucia

Sarà una trasferta delicata quella che attende il Futsal Polistena sabato prossimo, 20 ottobre, quando i rossoverdi – primi in classifica a punteggio pieno in compagnia dell’Assoporto Melilli – affronteranno il Mascalucia, reduce dalla...
DataCasaRisultatiTrasfertaOra
2020-04-18 16:00:0018/04/2020 - 16:00- 16:00:0016:00
2020-04-04 16:00:0004/04/2020 - 16:00- 16:00:0016:00
2020-03-14 16:00:0014/03/2020 - 16:00- 16:00:0016:00
2020-03-07 16:00:0007/03/2020 - 16:00- 16:00:0016:00
2020-02-22 16:00:0022/02/2020 - 16:00- 16:00:0016:00
2020-02-15 16:00:0015/02/2020 - 16:00- 16:00:0016:00
2020-02-08 16:00:0008/02/2020 - 16:00- 16:00:0016:00
2020-02-01 16:00:0001/02/2020 - 16:00- 16:00:0016:00
2020-01-25 16:00:0025/01/2020 - 16:00- 16:00:0016:00
2020-01-18 16:00:0018/01/2020 - 16:00- 16:00:0016:00
2019-12-14 16:00:0014/12/2019 - 16:00- 16:00:0016:00
2019-12-07 16:00:0007/12/2019 - 16:00- 16:00:0016:00
2019-11-30 16:00:0030/11/2019 - 16:00- 16:00:0016:00
2019-11-23 16:00:0023/11/2019 - 16:00- 16:00:0016:00
2019-11-09 16:00:0009/11/2019 - 16:00- 16:00:0016:00
2019-11-02 16:00:0002/11/2019 - 16:00- 16:00:0016:00
2019-10-26 16:00:0026/10/2019 - 16:00- 16:00:0016:00
2019-10-19 16:00:0019/10/2019 - 16:00- 16:00:0016:00
2019-10-12 16:00:0012/10/2019 - 16:00- 16:00:0016:00
2019-10-05 16:00:0005/10/2019 - 16:00- 16:00:0016:00
2019-04-27 16:00:0027/04/2019 - 16:005 - 0 16:00:0016:00
2019-04-13 16:00:0013/04/2019 - 16:007 - 4 16:00:0016:00
2019-04-06 16:00:0006/04/2019 - 16:001 - 4 16:00:0016:00
2019-03-23 16:00:0023/03/2019 - 16:002 - 3 16:00:0016:00
2019-03-16 16:00:0016/03/2019 - 16:004 - 2 16:00:0016:00
2019-03-02 16:00:0002/03/2019 - 16:006 - 5 16:00:0016:00
2019-02-23 16:00:0023/02/2019 - 16:003 - 3 16:00:0016:00
2019-02-16 16:00:0016/02/2019 - 16:001 - 9 16:00:0016:00
2019-02-09 16:00:0009/02/2019 - 16:007 - 3 16:00:0016:00
2019-01-19 16:00:0019/01/2019 - 16:008 - 11 16:00:0016:00
2019-01-12 16:00:0012/01/2019 - 16:004 - 3 16:00:0016:00
2019-01-05 16:00:0005/01/2019 - 16:005 - 7 16:00:0016:00
2018-12-22 16:00:0022/12/2018 - 16:002 - 3 16:00:0016:00
2018-12-15 16:00:0015/12/2018 - 16:002 - 2 16:00:0016:00
2018-12-08 16:00:0008/12/2018 - 16:004 - 1 16:00:0016:00
2018-11-24 16:00:0024/11/2018 - 16:003 - 1 16:00:0016:00
2018-11-10 16:00:0010/11/2018 - 16:009 - 3 16:00:0016:00
2018-11-03 16:00:0003/11/2018 - 16:005 - 0 16:00:0016:00
2018-10-27 16:00:0027/10/2018 - 16:006 - 0 16:00:0016:00
2018-10-20 16:00:0020/10/2018 - 16:005 - 2 16:00:0016:00
2018-10-13 16:00:0013/10/2018 - 16:006 - 0 16:00:0016:00
2018-10-06 16:00:0006/10/2018 - 16:005 - 2 16:00:0016:00